Time,TemperatureF,DewpointF,PressureIn,WindDirection,WindDirectionDegrees,WindSpeedMPH,WindSpeedGustMPH,Humidity,HourlyPrecipIn,Conditions,Clouds,dailyrainin,SoftwareType,DateUTC
2013-08-03 04:25:00,65.2,63.1,29.89,West,266,0.0,-999.0,93,0.05,,,0.14,Wunderground v.1.15,2013-08-03 08:25:00,
2013-08-03 04:31:00,65.1,63.0,29.89,West,266,0.0,-999.0,93,0.00,,,0.14,Wunderground v.1.15,2013-08-03 08:31:00,
2013-08-03 04:37:00,65.1,63.0,29.89,SW,230,0.0,-999.0,93,0.00,,,0.14,Wunderground v.1.15,2013-08-03 08:37:00,
2013-08-03 04:43:00,65.0,62.9,29.89,SW,230,0.0,-999.0,93,0.00,,,0.14,Wunderground v.1.15,2013-08-03 08:43:00,
2013-08-03 04:49:00,64.9,62.8,29.89,SW,230,0.0,-999.0,93,0.00,,,0.14,Wunderground v.1.15,2013-08-03 08:49:00,
2013-08-03 04:54:00,64.9,63.1,29.89,SW,230,0.0,-999.0,94,0.00,,,0.14,Wunderground v.1.15,2013-08-03 08:54:00,
2013-08-03 05:00:00,64.9,63.1,29.89,SW,230,0.0,-999.0,94,0.00,,,0.14,Wunderground v.1.15,2013-08-03 09:00:00,
2013-08-03 05:06:00,65.0,63.2,29.90,SW,230,0.0,-999.0,94,1.79,,,0.19,Wunderground v.1.15,2013-08-03 09:06:00,
2013-08-03 05:12:00,65.0,63.2,29.90,SW,230,0.0,-999.0,94,0.47,,,0.27,Wunderground v.1.15,2013-08-03 09:12:00,
2013-08-03 05:18:00,64.9,63.1,29.90,SW,230,0.0,-999.0,94,0.63,,,0.33,Wunderground v.1.15,2013-08-03 09:18:00,
2013-08-03 05:23:00,64.9,63.1,29.89,SW,230,0.0,-999.0,94,0.30,,,0.36,Wunderground v.1.15,2013-08-03 09:23:00,
2013-08-03 05:29:00,64.8,63.0,29.89,SW,231,0.0,-999.0,94,0.12,,,0.38,Wunderground v.1.15,2013-08-03 09:29:00,
2013-08-03 05:34:00,64.8,63.0,29.89,SW,231,0.0,-999.0,94,0.07,,,0.39,Wunderground v.1.15,2013-08-03 09:34:00,
2013-08-03 05:40:00,64.9,63.1,29.89,SW,231,0.0,-999.0,94,0.10,,,0.40,Wunderground v.1.15,2013-08-03 09:40:00,
2013-08-03 05:46:00,64.8,63.0,29.89,SW,231,0.0,-999.0,94,0.08,,,0.40,Wunderground v.1.15,2013-08-03 09:46:00,
2013-08-03 05:52:00,64.8,63.0,29.89,SW,231,0.0,-999.0,94,0.04,,,0.40,Wunderground v.1.15,2013-08-03 09:52:00,
2013-08-03 05:58:00,64.8,63.0,29.89,SW,231,0.0,-999.0,94,0.00,,,0.40,Wunderground v.1.15,2013-08-03 09:58:00,
2013-08-03 06:04:00,64.8,63.0,29.89,SW,231,0.0,-999.0,94,0.00,,,0.40,Wunderground v.1.15,2013-08-03 10:04:00,
2013-08-03 06:10:00,64.9,63.1,29.89,SW,231,0.0,-999.0,94,0.00,,,0.41,Wunderground v.1.15,2013-08-03 10:10:00,
2013-08-03 06:16:00,64.9,63.4,29.88,SW,231,0.0,-999.0,95,0.12,,,0.42,Wunderground v.1.15,2013-08-03 10:16:00,
2013-08-03 06:21:00,64.8,63.3,29.88,SW,231,0.0,-999.0,95,0.06,,,0.42,Wunderground v.1.15,2013-08-03 10:21:00,
2013-08-03 06:27:00,64.7,63.2,29.89,SW,231,0.0,-999.0,95,0.04,,,0.43,Wunderground v.1.15,2013-08-03 10:27:00,
2013-08-03 06:33:00,64.7,62.9,29.89,East,89,0.0,-999.0,94,0.04,,,0.43,Wunderground v.1.15,2013-08-03 10:33:00,
2013-08-03 06:39:00,64.7,62.9,29.89,East,90,0.0,-999.0,94,0.04,,,0.43,Wunderground v.1.15,2013-08-03 10:39:00,
2013-08-03 06:45:00,64.7,62.9,29.89,SE,127,0.0,-999.0,94,0.00,,,0.43,Wunderground v.1.15,2013-08-03 10:45:00,
2013-08-03 06:51:00,64.8,63.3,29.89,SE,127,0.0,-999.0,95,0.00,,,0.43,Wunderground v.1.15,2013-08-03 10:51:00,
2013-08-03 06:57:00,64.8,63.3,29.89,SSE,153,0.0,-999.0,95,0.00,,,0.43,Wunderground v.1.15,2013-08-03 10:57:00,
2013-08-03 07:02:00,64.8,63.3,29.89,SSE,153,0.0,-999.0,95,0.00,,,0.43,Wunderground v.1.15,2013-08-03 11:02:00,
2013-08-03 07:08:00,64.8,63.3,29.89,SSE,153,0.0,-999.0,95,0.00,,,0.43,Wunderground v.1.15,2013-08-03 11:08:00,
2013-08-03 07:14:00,64.8,63.3,29.89,SSE,153,0.0,-999.0,95,0.00,,,0.43,Wunderground v.1.15,2013-08-03 11:14:00,
2013-08-03 07:20:00,64.9,63.4,29.89,SSE,153,0.0,-999.0,95,0.00,,,0.43,Wunderground v.1.15,2013-08-03 11:20:00,
2013-08-03 07:25:00,65.0,63.5,29.89,SSE,153,0.0,-999.0,95,0.00,,,0.43,Wunderground v.1.15,2013-08-03 11:25:00,
2013-08-03 07:31:00,65.1,63.6,29.89,SSE,153,0.0,-999.0,95,0.00,,,0.43,Wunderground v.1.15,2013-08-03 11:31:00,
2013-08-03 07:37:00,65.3,63.8,29.89,SSE,153,0.0,-999.0,95,0.00,,,0.43,Wunderground v.1.15,2013-08-03 11:37:00,
2013-08-03 07:43:00,65.4,63.9,29.89,SSE,153,0.0,-999.0,95,0.00,,,0.43,Wunderground v.1.15,2013-08-03 11:43:00,
2013-08-03 07:48:00,65.5,64.0,29.90,SSE,153,0.0,-999.0,95,0.00,,,0.43,Wunderground v.1.15,2013-08-03 11:48:00,
2013-08-03 07:54:00,65.7,64.2,29.89,SSE,153,0.0,-999.0,95,0.00,,,0.43,Wunderground v.1.15,2013-08-03 11:54:00,
2013-08-03 08:00:00,65.7,64.2,29.89,SSE,153,0.0,-999.0,95,0.00,,,0.43,Wunderground v.1.15,2013-08-03 12:00:00,
2013-08-03 08:06:00,65.9,64.4,29.89,SSE,154,0.0,-999.0,95,0.00,,,0.43,Wunderground v.1.15,2013-08-03 12:06:00,
2013-08-03 08:12:00,66.1,64.6,29.89,SSE,152,0.0,-999.0,95,0.00,,,0.43,Wunderground v.1.15,2013-08-03 12:12:00,
2013-08-03 08:18:00,66.1,64.6,29.89,SSE,152,0.0,-999.0,95,0.00,,,0.43,Wunderground v.1.15,2013-08-03 12:18:00,
2013-08-03 08:24:00,66.3,64.8,29.89,SSE,152,0.0,-999.0,95,0.00,,,0.43,Wunderground v.1.15,2013-08-03 12:24:00,
2013-08-03 08:30:00,66.2,64.7,29.89,SSE,152,0.0,-999.0,95,0.00,,,0.43,Wunderground v.1.15,2013-08-03 12:30:00,
2013-08-03 08:36:00,66.3,64.8,29.89,SSE,152,0.0,-999.0,95,0.00,,,0.43,Wunderground v.1.15,2013-08-03 12:36:00,
2013-08-03 08:42:00,66.2,64.7,29.89,SSE,152,0.0,-999.0,95,0.00,,,0.43,Wunderground v.1.15,2013-08-03 12:42:00,
2013-08-03 08:48:00,66.4,64.9,29.89,SSE,152,0.0,-999.0,95,0.00,,,0.43,Wunderground v.1.15,2013-08-03 12:48:00,
2013-08-03 08:54:00,66.5,65.0,29.89,SSE,152,0.0,-999.0,95,0.00,,,0.43,Wunderground v.1.15,2013-08-03 12:54:00,
2013-08-03 09:00:00,66.8,65.3,29.89,SSE,152,0.0,-999.0,95,0.00,,,0.43,Wunderground v.1.15,2013-08-03 13:00:00,
2013-08-03 09:05:00,66.9,65.4,29.89,SSE,152,0.0,-999.0,95,0.00,,,0.43,Wunderground v.1.15,2013-08-03 13:05:00,
2013-08-03 09:11:00,67.0,65.5,29.89,SSE,152,0.0,-999.0,95,0.00,,,0.43,Wunderground v.1.15,2013-08-03 13:11:00,
2013-08-03 09:17:00,67.1,65.6,29.89,SSE,152,0.0,-999.0,95,0.00,,,0.43,Wunderground v.1.15,2013-08-03 13:17:00,
2013-08-03 09:23:00,67.0,65.5,29.89,SSE,152,0.0,-999.0,95,0.00,,,0.43,Wunderground v.1.15,2013-08-03 13:23:00,
2013-08-03 09:29:00,67.0,65.5,29.89,SSE,151,0.0,-999.0,95,0.00,,,0.43,Wunderground v.1.15,2013-08-03 13:29:00,
2013-08-03 09:35:00,67.2,65.4,29.89,SE,142,0.0,-999.0,94,0.00,,,0.43,Wunderground v.1.15,2013-08-03 13:35:00,
2013-08-03 09:41:00,67.9,66.4,29.89,South,173,0.0,-999.0,95,0.00,,,0.43,Wunderground v.1.15,2013-08-03 13:41:00,
2013-08-03 09:47:00,68.1,66.6,29.89,South,173,0.0,-999.0,95,0.00,,,0.43,Wunderground v.1.15,2013-08-03 13:47:00,
2013-08-03 09:53:00,68.2,66.4,29.89,South,182,0.0,-999.0,94,0.00,,,0.43,Wunderground v.1.15,2013-08-03 13:53:00,
2013-08-03 09:59:00,68.5,66.7,29.89,South,182,0.0,-999.0,94,0.00,,,0.43,Wunderground v.1.15,2013-08-03 13:59:00,
2013-08-03 10:05:00,68.6,66.5,29.89,South,188,0.0,-999.0,93,0.00,,,0.43,Wunderground v.1.15,2013-08-03 14:05:00,
2013-08-03 10:11:00,68.8,66.7,29.89,SSW,196,0.0,-999.0,93,0.00,,,0.43,Wunderground v.1.15,2013-08-03 14:11:00,
2013-08-03 10:17:00,68.9,66.5,29.89,SSW,198,0.0,-999.0,92,0.00,,,0.43,Wunderground v.1.15,2013-08-03 14:17:00,
2013-08-03 10:23:00,69.1,66.4,29.89,SSW,198,0.0,-999.0,91,0.00,,,0.43,Wunderground v.1.15,2013-08-03 14:23:00,
2013-08-03 10:28:00,69.6,66.9,29.89,SSW,199,0.0,-999.0,91,0.00,,,0.43,Wunderground v.1.15,2013-08-03 14:28:00,
2013-08-03 10:35:00,69.9,66.5,29.89,SW,223,0.0,-999.0,89,0.00,,,0.43,Wunderground v.1.15,2013-08-03 14:35:00,
2013-08-03 10:41:00,70.2,66.8,29.89,West,273,0.0,-999.0,89,0.00,,,0.43,Wunderground v.1.15,2013-08-03 14:41:00,
2013-08-03 10:46:00,70.5,67.1,29.89,West,274,0.0,-999.0,89,0.00,,,0.43,Wunderground v.1.15,2013-08-03 14:46:00,
2013-08-03 10:52:00,70.4,66.3,29.90,West,274,0.0,-999.0,87,0.00,,,0.43,Wunderground v.1.15,2013-08-03 14:52:00,
2013-08-03 10:58:00,70.4,66.7,29.89,West,274,0.0,-999.0,88,0.00,,,0.44,Wunderground v.1.15,2013-08-03 14:58:00,
2013-08-03 11:03:00,70.6,66.5,29.89,West,274,0.0,-999.0,87,0.00,,,0.44,Wunderground v.1.15,2013-08-03 15:03:00,
2013-08-03 11:09:00,71.0,67.3,29.89,West,274,0.0,-999.0,88,0.00,,,0.44,Wunderground v.1.15,2013-08-03 15:09:00,
2013-08-03 11:14:00,71.2,67.1,29.89,West,274,0.0,-999.0,87,0.00,,,0.44,Wunderground v.1.15,2013-08-03 15:14:00,
2013-08-03 11:20:00,71.3,66.9,29.89,West,269,0.0,-999.0,86,0.00,,,0.44,Wunderground v.1.15,2013-08-03 15:20:00,
2013-08-03 11:26:00,71.7,67.3,29.89,West,269,0.0,-999.0,86,0.00,,,0.44,Wunderground v.1.15,2013-08-03 15:26:00,
2013-08-03 11:32:00,72.5,68.4,29.89,West,269,0.0,-999.0,87,0.00,,,0.44,Wunderground v.1.15,2013-08-03 15:32:00,
2013-08-03 11:38:00,73.2,68.1,29.89,West,270,0.0,-999.0,84,0.00,,,0.44,Wunderground v.1.15,2013-08-03 15:38:00,
2013-08-03 11:44:00,74.0,68.2,29.89,West,277,0.0,-999.0,82,0.00,,,0.44,Wunderground v.1.15,2013-08-03 15:44:00,
2013-08-03 11:50:00,74.0,67.1,29.89,West,277,0.0,-999.0,79,0.00,,,0.44,Wunderground v.1.15,2013-08-03 15:50:00,
2013-08-03 11:55:00,73.9,66.6,29.89,NNW,329,0.0,-999.0,78,0.00,,,0.44,Wunderground v.1.15,2013-08-03 15:55:00,
2013-08-03 12:01:00,74.0,67.4,29.89,NNW,329,0.0,-999.0,80,0.00,,,0.44,Wunderground v.1.15,2013-08-03 16:01:00,
2013-08-03 12:06:00,74.4,67.5,29.89,NW,322,0.0,-999.0,79,0.00,,,0.44,Wunderground v.1.15,2013-08-03 16:06:00,
2013-08-03 12:13:00,74.9,67.2,29.89,North,10,0.0,-999.0,77,0.00,,,0.44,Wunderground v.1.15,2013-08-03 16:13:00,
2013-08-03 12:18:00,74.8,66.7,29.89,North,350,0.0,-999.0,76,0.00,,,0.44,Wunderground v.1.15,2013-08-03 16:18:00,
2013-08-03 12:24:00,75.2,68.2,29.89,North,5,0.0,-999.0,79,0.00,,,0.44,Wunderground v.1.15,2013-08-03 16:24:00,
2013-08-03 12:30:00,75.6,67.1,29.89,NNE,18,1.0,-999.0,75,0.00,,,0.44,Wunderground v.1.15,2013-08-03 16:30:00,
2013-08-03 12:36:00,76.0,66.7,29.89,NNE,21,1.0,-999.0,73,0.00,,,0.44,Wunderground v.1.15,2013-08-03 16:36:00,
2013-08-03 12:42:00,75.8,66.1,29.89,SSE,164,0.0,-999.0,72,0.00,,,0.44,Wunderground v.1.15,2013-08-03 16:42:00,
2013-08-03 12:47:00,75.8,67.3,29.89,SSE,158,0.0,-999.0,75,0.00,,,0.44,Wunderground v.1.15,2013-08-03 16:47:00,
2013-08-03 12:53:00,76.0,65.9,29.89,SSE,160,0.0,-999.0,71,0.00,,,0.44,Wunderground v.1.15,2013-08-03 16:53:00,
2013-08-03 12:58:00,76.4,65.9,29.89,SSE,160,0.0,-999.0,70,0.00,,,0.44,Wunderground v.1.15,2013-08-03 16:58:00,
2013-08-03 13:04:00,76.6,66.1,29.89,North,5,1.0,-999.0,70,0.00,,,0.44,Wunderground v.1.15,2013-08-03 17:04:00,
2013-08-03 13:10:00,76.2,65.7,29.89,North,5,1.0,-999.0,70,0.00,,,0.44,Wunderground v.1.15,2013-08-03 17:10:00,
2013-08-03 13:16:00,75.8,64.9,29.88,NNW,345,1.0,-999.0,69,0.00,,,0.44,Wunderground v.1.15,2013-08-03 17:16:00,
2013-08-03 13:22:00,76.2,65.7,29.89,North,5,1.0,-999.0,70,0.00,,,0.44,Wunderground v.1.15,2013-08-03 17:22:00,
2013-08-03 13:28:00,76.7,64.9,29.88,NE,34,1.0,-999.0,67,0.00,,,0.44,Wunderground v.1.15,2013-08-03 17:28:00,
2013-08-03 13:34:00,77.1,65.7,29.88,NNE,28,1.0,-999.0,68,0.00,,,0.44,Wunderground v.1.15,2013-08-03 17:34:00,
2013-08-03 13:38:00,77.0,65.2,29.88,North,5,1.0,-999.0,67,0.00,,,0.44,Wunderground v.1.15,2013-08-03 17:38:00,
2013-08-03 13:45:00,77.3,63.3,29.88,North,9,1.0,-999.0,62,0.00,,,0.44,Wunderground v.1.15,2013-08-03 17:45:00,
2013-08-03 13:50:00,77.8,65.1,29.88,North,5,1.0,-999.0,65,0.00,,,0.44,Wunderground v.1.15,2013-08-03 17:50:00,
2013-08-03 13:56:00,78.2,65.0,29.88,North,360,1.0,-999.0,64,0.00,,,0.44,Wunderground v.1.15,2013-08-03 17:56:00,
2013-08-03 14:02:00,78.7,64.1,29.88,North,5,1.0,-999.0,61,0.00,,,0.44,Wunderground v.1.15,2013-08-03 18:02:00,
2013-08-03 14:08:00,79.0,62.5,29.88,NNE,15,2.0,-999.0,57,0.00,,,0.44,Wunderground v.1.15,2013-08-03 18:08:00,
2013-08-03 14:14:00,79.3,64.2,29.88,North,5,1.0,-999.0,60,0.00,,,0.44,Wunderground v.1.15,2013-08-03 18:14:00,
2013-08-03 14:19:00,79.7,63.6,29.88,WNW,298,0.0,-999.0,58,0.00,,,0.44,Wunderground v.1.15,2013-08-03 18:19:00,
2013-08-03 14:26:00,79.8,63.7,29.88,WNW,302,0.0,-999.0,58,0.00,,,0.44,Wunderground v.1.15,2013-08-03 18:26:00,
2013-08-03 14:32:00,80.1,63.5,29.88,NW,315,0.0,-999.0,57,0.00,,,0.44,Wunderground v.1.15,2013-08-03 18:32:00,
2013-08-03 14:38:00,80.0,63.4,29.87,NW,315,0.0,-999.0,57,0.00,,,0.44,Wunderground v.1.15,2013-08-03 18:38:00,
2013-08-03 14:43:00,80.2,65.5,29.87,NNE,22,1.0,-999.0,61,0.00,,,0.44,Wunderground v.1.15,2013-08-03 18:43:00,
2013-08-03 14:49:00,80.2,65.5,29.87,NNE,14,2.0,-999.0,61,0.00,,,0.44,Wunderground v.1.15,2013-08-03 18:49:00,
2013-08-03 14:55:00,79.9,63.8,29.87,North,5,2.0,-999.0,58,0.00,,,0.44,Wunderground v.1.15,2013-08-03 18:55:00,
2013-08-03 15:01:00,79.7,63.1,29.88,NW,311,2.0,-999.0,57,0.00,,,0.44,Wunderground v.1.15,2013-08-03 19:01:00,
2013-08-03 15:07:00,79.8,64.2,29.87,NW,306,1.0,-999.0,59,0.00,,,0.44,Wunderground v.1.15,2013-08-03 19:07:00,
2013-08-03 15:13:00,80.2,64.6,29.88,WSW,248,0.0,-999.0,59,0.00,,,0.44,Wunderground v.1.15,2013-08-03 19:13:00,
2013-08-03 15:19:00,79.8,66.5,29.88,NNE,13,1.0,-999.0,64,0.00,,,0.44,Wunderground v.1.15,2013-08-03 19:19:00,
2013-08-03 15:25:00,78.8,65.1,29.88,NNE,18,3.0,-999.0,63,0.00,,,0.44,Wunderground v.1.15,2013-08-03 19:25:00,
2013-08-03 15:30:00,78.0,65.3,29.88,NNE,13,3.0,-999.0,65,0.00,,,0.44,Wunderground v.1.15,2013-08-03 19:30:00,
2013-08-03 15:36:00,77.9,66.5,29.88,NNE,13,2.0,-999.0,68,0.00,,,0.44,Wunderground v.1.15,2013-08-03 19:36:00,
2013-08-03 15:42:00,78.2,65.5,29.87,NE,37,2.0,-999.0,65,0.00,,,0.44,Wunderground v.1.15,2013-08-03 19:42:00,
2013-08-03 15:48:00,78.1,63.6,29.88,North,5,3.0,-999.0,61,0.00,,,0.44,Wunderground v.1.15,2013-08-03 19:48:00,
2013-08-03 15:53:00,77.8,63.7,29.87,NNE,12,3.0,-999.0,62,0.00,,,0.44,Wunderground v.1.15,2013-08-03 19:53:00,
2013-08-03 15:58:00,77.6,64.5,29.87,NE,53,2.0,-999.0,64,0.00,,,0.44,Wunderground v.1.15,2013-08-03 19:58:00,
2013-08-03 16:05:00,77.4,62.9,29.87,North,360,2.0,-999.0,61,0.00,,,0.44,Wunderground v.1.15,2013-08-03 20:05:00,
2013-08-03 16:11:00,77.2,62.7,29.87,WNW,300,1.0,-999.0,61,0.00,,,0.44,Wunderground v.1.15,2013-08-03 20:11:00,
2013-08-03 16:16:00,77.6,63.5,29.87,North,351,0.0,-999.0,62,0.00,,,0.44,Wunderground v.1.15,2013-08-03 20:16:00,
2013-08-03 16:22:00,78.0,62.0,29.87,NW,320,1.0,-999.0,58,0.00,,,0.44,Wunderground v.1.15,2013-08-03 20:22:00,
2013-08-03 16:28:00,78.2,62.7,29.87,North,5,1.0,-999.0,59,0.00,,,0.44,Wunderground v.1.15,2013-08-03 20:28:00,
2013-08-03 16:34:00,78.2,63.2,29.87,NNW,336,0.0,-999.0,60,0.00,,,0.44,Wunderground v.1.15,2013-08-03 20:34:00,
2013-08-03 16:39:00,78.2,61.7,29.87,NW,318,0.0,-999.0,57,0.00,,,0.44,Wunderground v.1.15,2013-08-03 20:39:00,
2013-08-03 16:45:00,78.0,63.0,29.88,NNE,19,1.0,-999.0,60,0.00,,,0.44,Wunderground v.1.15,2013-08-03 20:45:00,
2013-08-03 16:51:00,78.0,61.5,29.88,NNE,20,2.0,-999.0,57,0.00,,,0.44,Wunderground v.1.15,2013-08-03 20:51:00,
2013-08-03 16:57:00,78.0,62.5,29.88,NNE,12,3.0,-999.0,59,0.00,,,0.44,Wunderground v.1.15,2013-08-03 20:57:00,
2013-08-03 17:03:00,78.1,62.1,29.88,NW,312,1.0,-999.0,58,0.00,,,0.44,Wunderground v.1.15,2013-08-03 21:03:00,
2013-08-03 17:08:00,78.2,61.7,29.88,North,5,1.0,-999.0,57,0.00,,,0.44,Wunderground v.1.15,2013-08-03 21:08:00,
2013-08-03 17:13:00,78.0,61.0,29.88,North,350,1.0,-999.0,56,0.00,,,0.44,Wunderground v.1.15,2013-08-03 21:13:00,
2013-08-03 17:19:00,77.7,61.7,29.88,NNE,31,2.0,-999.0,58,0.00,,,0.44,Wunderground v.1.15,2013-08-03 21:19:00,
2013-08-03 17:24:00,77.4,61.0,29.88,ENE,72,2.0,-999.0,57,0.00,,,0.44,Wunderground v.1.15,2013-08-03 21:24:00,
2013-08-03 17:30:00,77.3,61.4,29.88,NNW,339,1.0,-999.0,58,0.00,,,0.44,Wunderground v.1.15,2013-08-03 21:30:00,
2013-08-03 17:37:00,77.3,60.4,29.88,NNW,327,1.0,-999.0,56,0.00,,,0.44,Wunderground v.1.15,2013-08-03 21:37:00,
2013-08-03 17:43:00,77.4,61.0,29.88,North,355,1.0,-999.0,57,0.00,,,0.44,Wunderground v.1.15,2013-08-03 21:43:00,
2013-08-03 17:49:00,77.4,60.5,29.89,NNW,341,1.0,-999.0,56,0.00,,,0.44,Wunderground v.1.15,2013-08-03 21:49:00,
2013-08-03 17:55:00,77.4,60.5,29.89,NNW,331,0.0,-999.0,56,0.00,,,0.44,Wunderground v.1.15,2013-08-03 21:55:00,
2013-08-03 18:01:00,77.4,61.0,29.89,North,355,0.0,-999.0,57,0.00,,,0.44,Wunderground v.1.15,2013-08-03 22:01:00,
2013-08-03 18:06:00,77.2,60.8,29.89,NW,304,1.0,-999.0,57,0.00,,,0.44,Wunderground v.1.15,2013-08-03 22:06:00,
2013-08-03 18:12:00,77.0,59.6,29.89,NNW,342,2.0,-999.0,55,0.00,,,0.44,Wunderground v.1.15,2013-08-03 22:12:00,
2013-08-03 18:18:00,76.7,59.8,29.89,West,277,2.0,-999.0,56,0.00,,,0.44,Wunderground v.1.15,2013-08-03 22:18:00,
2013-08-03 18:23:00,76.6,59.7,29.89,NNE,28,1.0,-999.0,56,0.00,,,0.44,Wunderground v.1.15,2013-08-03 22:23:00,
2013-08-03 18:28:00,76.3,59.4,29.89,NNE,31,2.0,-999.0,56,0.00,,,0.44,Wunderground v.1.15,2013-08-03 22:28:00,
2013-08-03 18:35:00,75.7,58.9,29.89,North,355,4.0,-999.0,56,0.00,,,0.44,Wunderground v.1.15,2013-08-03 22:35:00,
2013-08-03 18:41:00,75.4,59.6,29.89,North,360,3.0,-999.0,58,0.00,,,0.44,Wunderground v.1.15,2013-08-03 22:41:00,
2013-08-03 18:47:00,75.3,59.0,29.89,North,360,1.0,-999.0,57,0.00,,,0.44,Wunderground v.1.15,2013-08-03 22:47:00,
2013-08-03 18:51:00,75.2,59.4,29.89,NE,34,1.0,-999.0,58,0.00,,,0.44,Wunderground v.1.15,2013-08-03 22:51:00,
2013-08-03 18:57:00,75.1,58.8,29.90,North,9,1.0,-999.0,57,0.00,,,0.44,Wunderground v.1.15,2013-08-03 22:57:00,
2013-08-03 19:03:00,74.9,58.1,29.90,North,5,1.0,-999.0,56,0.00,,,0.44,Wunderground v.1.15,2013-08-03 23:03:00,
2013-08-03 19:08:00,74.9,59.1,29.90,North,360,0.0,-999.0,58,0.00,,,0.44,Wunderground v.1.15,2013-08-03 23:08:00,
2013-08-03 19:15:00,74.8,59.0,29.89,NNW,334,0.0,-999.0,58,0.00,,,0.44,Wunderground v.1.15,2013-08-03 23:15:00,
2013-08-03 19:20:00,74.7,57.5,29.89,NW,325,0.0,-999.0,55,0.00,,,0.44,Wunderground v.1.15,2013-08-03 23:20:00,
2013-08-03 19:26:00,74.5,57.8,29.90,North,5,0.0,-999.0,56,0.00,,,0.44,Wunderground v.1.15,2013-08-03 23:26:00,
2013-08-03 19:32:00,74.2,57.5,29.89,North,5,0.0,-999.0,56,0.00,,,0.44,Wunderground v.1.15,2013-08-03 23:32:00,
2013-08-03 19:38:00,74.0,58.3,29.90,North,5,0.0,-999.0,58,0.00,,,0.44,Wunderground v.1.15,2013-08-03 23:38:00,
2013-08-03 19:44:00,73.7,58.5,29.90,North,5,0.0,-999.0,59,0.00,,,0.44,Wunderground v.1.15,2013-08-03 23:44:00,
2013-08-03 19:50:00,73.3,58.6,29.90,North,5,0.0,-999.0,60,0.00,,,0.44,Wunderground v.1.15,2013-08-03 23:50:00,
2013-08-03 19:56:00,72.9,59.1,29.90,North,5,0.0,-999.0,62,0.00,,,0.44,Wunderground v.1.15,2013-08-03 23:56:00,
2013-08-03 20:01:00,72.6,58.8,29.90,North,5,0.0,-999.0,62,0.00,,,0.44,Wunderground v.1.15,2013-08-04 00:01:00,
2013-08-03 20:07:00,72.1,58.8,29.89,North,5,0.0,-999.0,63,0.00,,,0.44,Wunderground v.1.15,2013-08-04 00:07:00,
2013-08-03 20:13:00,71.5,58.2,29.90,North,5,0.0,-999.0,63,0.00,,,0.44,Wunderground v.1.15,2013-08-04 00:13:00,
2013-08-03 20:19:00,71.0,58.6,29.90,North,5,0.0,-999.0,65,0.00,,,0.44,Wunderground v.1.15,2013-08-04 00:19:00,
2013-08-03 20:24:00,70.6,58.7,29.90,North,5,0.0,-999.0,66,0.00,,,0.44,Wunderground v.1.15,2013-08-04 00:24:00,
2013-08-03 20:30:00,70.1,59.0,29.90,North,5,0.0,-999.0,68,0.00,,,0.44,Wunderground v.1.15,2013-08-04 00:30:00,
2013-08-03 20:36:00,69.5,59.3,29.90,North,5,0.0,-999.0,70,0.00,,,0.44,Wunderground v.1.15,2013-08-04 00:36:00,
2013-08-03 20:42:00,68.9,58.3,29.90,North,5,0.0,-999.0,69,0.00,,,0.44,Wunderground v.1.15,2013-08-04 00:42:00,
2013-08-03 20:47:00,68.4,58.2,29.90,North,5,0.0,-999.0,70,0.00,,,0.44,Wunderground v.1.15,2013-08-04 00:47:00,
2013-08-03 20:53:00,67.7,58.3,29.90,North,5,0.0,-999.0,72,0.00,,,0.44,Wunderground v.1.15,2013-08-04 00:53:00,
2013-08-03 20:59:00,67.2,58.2,29.90,North,5,0.0,-999.0,73,0.00,,,0.44,Wunderground v.1.15,2013-08-04 00:59:00,
2013-08-03 21:05:00,66.6,58.1,29.90,North,5,0.0,-999.0,74,0.00,,,0.44,Wunderground v.1.15,2013-08-04 01:05:00,
2013-08-03 21:11:00,66.0,58.2,29.91,North,5,0.0,-999.0,76,0.00,,,0.44,Wunderground v.1.15,2013-08-04 01:11:00,
2013-08-03 21:17:00,65.4,58.4,29.91,North,5,0.0,-999.0,78,0.00,,,0.44,Wunderground v.1.15,2013-08-04 01:17:00,
2013-08-03 21:23:00,64.8,58.1,29.91,North,5,0.0,-999.0,79,0.00,,,0.44,Wunderground v.1.15,2013-08-04 01:23:00,
2013-08-03 21:29:00,64.3,58.0,29.91,North,5,0.0,-999.0,80,0.00,,,0.44,Wunderground v.1.15,2013-08-04 01:29:00,
2013-08-03 21:35:00,63.8,57.9,29.91,North,5,0.0,-999.0,81,0.00,,,0.44,Wunderground v.1.15,2013-08-04 01:35:00,
2013-08-03 21:41:00,63.4,57.8,29.91,North,5,0.0,-999.0,82,0.00,,,0.44,Wunderground v.1.15,2013-08-04 01:41:00,
2013-08-03 21:46:00,63.0,57.8,29.92,North,5,0.0,-999.0,83,0.00,,,0.44,Wunderground v.1.15,2013-08-04 01:46:00,
2013-08-03 21:52:00,62.6,57.7,29.92,North,5,0.0,-999.0,84,0.00,,,0.44,Wunderground v.1.15,2013-08-04 01:52:00,
2013-08-03 21:58:00,62.2,57.6,29.92,North,5,0.0,-999.0,85,0.00,,,0.44,Wunderground v.1.15,2013-08-04 01:58:00,
2013-08-03 22:04:00,61.9,57.7,29.92,North,5,0.0,-999.0,86,0.00,,,0.44,Wunderground v.1.15,2013-08-04 02:04:00,
2013-08-03 22:09:00,61.7,57.5,29.92,North,5,0.0,-999.0,86,0.00,,,0.44,Wunderground v.1.15,2013-08-04 02:09:00,
2013-08-03 22:15:00,61.4,57.5,29.92,North,5,0.0,-999.0,87,0.00,,,0.44,Wunderground v.1.15,2013-08-04 02:15:00,
2013-08-03 22:21:00,61.0,57.1,29.92,North,5,0.0,-999.0,87,0.00,,,0.44,Wunderground v.1.15,2013-08-04 02:21:00,
2013-08-03 22:27:00,60.7,57.1,29.93,North,5,0.0,-999.0,88,0.00,,,0.44,Wunderground v.1.15,2013-08-04 02:27:00,
2013-08-03 22:33:00,60.5,56.9,29.92,North,5,0.0,-999.0,88,0.00,,,0.44,Wunderground v.1.15,2013-08-04 02:33:00,
2013-08-03 22:38:00,60.3,56.7,29.92,North,5,0.0,-999.0,88,0.00,,,0.44,Wunderground v.1.15,2013-08-04 02:38:00,
2013-08-03 22:44:00,60.0,56.7,29.92,North,5,0.0,-999.0,89,0.00,,,0.44,Wunderground v.1.15,2013-08-04 02:44:00,
2013-08-03 22:49:00,59.8,56.6,29.92,North,5,0.0,-999.0,89,0.00,,,0.44,Wunderground v.1.15,2013-08-04 02:49:00,
2013-08-03 22:56:00,59.6,56.4,29.93,North,5,0.0,-999.0,89,0.00,,,0.44,Wunderground v.1.15,2013-08-04 02:56:00,
2013-08-03 23:02:00,59.4,56.5,29.93,North,5,0.0,-999.0,90,0.00,,,0.44,Wunderground v.1.15,2013-08-04 03:02:00,
2013-08-03 23:08:00,59.1,56.2,29.93,North,5,0.0,-999.0,90,0.00,,,0.44,Wunderground v.1.15,2013-08-04 03:08:00,
2013-08-03 23:14:00,58.9,56.0,29.93,North,5,0.0,-999.0,90,0.00,,,0.44,Wunderground v.1.15,2013-08-04 03:14:00,
2013-08-03 23:19:00,58.7,55.8,29.93,North,5,0.0,-999.0,90,0.00,,,0.44,Wunderground v.1.15,2013-08-04 03:19:00,
2013-08-03 23:25:00,58.6,56.0,29.93,North,5,0.0,-999.0,91,0.00,,,0.44,Wunderground v.1.15,2013-08-04 03:25:00,
2013-08-03 23:31:00,58.4,55.8,29.93,North,5,0.0,-999.0,91,0.00,,,0.44,Wunderground v.1.15,2013-08-04 03:31:00,
2013-08-03 23:37:00,58.2,55.6,29.93,North,5,0.0,-999.0,91,0.00,,,0.44,Wunderground v.1.15,2013-08-04 03:37:00,
2013-08-03 23:43:00,58.0,55.4,29.93,North,5,0.0,-999.0,91,0.00,,,0.44,Wunderground v.1.15,2013-08-04 03:43:00,
2013-08-03 23:49:00,57.9,55.3,29.93,North,5,0.0,-999.0,91,0.00,,,0.44,Wunderground v.1.15,2013-08-04 03:49:00,
2013-08-03 23:55:00,57.8,55.2,29.93,North,5,0.0,-999.0,91,0.00,,,0.44,Wunderground v.1.15,2013-08-04 03:55:00,